When you browse on this site, cookies collect data to enhance your experience and personalize the content and advertising you see.
Visit our Privacy Policy to learn more. By continuing to use the site, you agree to this use of cookies and data.
  • In Latvia
  • List of Countries
  • For 7 days
  • Water Temperature
  • Weather Map
  • Weather Widgets
  • user-avatar
    Login

    Hourly Weather Novopersianovka

    Today, 26 August, Monday

    Time Temperature Precipitation Wind Pressure Humidity
    00:00 +26°C° 0 mm 6 mps 758 mmHg 36%
    01:00 +26°C° 0 mm 5 mps 758 mmHg 37%
    02:00 +25°C° 0 mm 5 mps 758 mmHg 38%
    03:00 +25°C° 0 mm 3 mps 759 mmHg 38%
    04:00 +23°C° 0 mm 4 mps 759 mmHg 41%
    05:00 +23°C° 0 mm 4 mps 759 mmHg 44%
    06:00 +23°C° 0 mm 4 mps 759 mmHg 47%
    07:00 +25°C° 0 mm 5 mps 759 mmHg 46%
    08:00 +26°C° 0 mm 5 mps 759 mmHg 44%
    09:00 +27°C° 0 mm 5 mps 760 mmHg 43%
    10:00 +28°C° 0 mm 5 mps 760 mmHg 39%
    11:00 +30°C° 0 mm 5 mps 760 mmHg 35%
    12:00 +32°C° 0 mm 5 mps 760 mmHg 30%
    13:00 +33°C° 0 mm 5 mps 759 mmHg 29%
    14:00 +33°C° 0 mm 5 mps 759 mmHg 28%
    15:00 +33°C° 0 mm 5 mps 759 mmHg 27%
    16:00 +33°C° 0 mm 5 mps 759 mmHg 29%
    17:00 +32°C° 0 mm 5 mps 759 mmHg 31%
    18:00 +30°C° 0 mm 5 mps 758 mmHg 32%
    19:00 +29°C° 0 mm 5 mps 759 mmHg 34%
    20:00 +27°C° 0 mm 5 mps 759 mmHg 35%
    21:00 +25°C° 0 mm 5 mps 759 mmHg 37%
    22:00 +25°C° 0 mm 4 mps 759 mmHg 38%
    23:00 +23°C° 0 mm 4 mps 758 mmHg 39%

    Tomorrow, 27 August, Tuesday

    Time Temperature Precipitation Wind Pressure Humidity
    00:00 +22°C° 0 mm 4 mps 758 mmHg 40%
    01:00 +21°C° 0 mm 4 mps 758 mmHg 41%
    02:00 +21°C° 0 mm 4 mps 758 mmHg 42%
    03:00 +20°C° 0 mm 4 mps 758 mmHg 42%
    04:00 +20°C° 0 mm 4 mps 758 mmHg 43%
    05:00 +19°C° 0 mm 3 mps 758 mmHg 44%
    06:00 +19°C° 0 mm 3 mps 757 mmHg 45%
    07:00 +21°C° 0 mm 4 mps 757 mmHg 41%
    08:00 +23°C° 0 mm 4 mps 757 mmHg 38%
    09:00 +26°C° 0 mm 5 mps 757 mmHg 34%
    10:00 +28°C° 0 mm 4 mps 757 mmHg 31%
    11:00 +29°C° 0 mm 4 mps 757 mmHg 29%
    12:00 +32°C° 0 mm 4 mps 757 mmHg 27%
    13:00 +32°C° 0 mm 4 mps 756 mmHg 26%
    14:00 +32°C° 0 mm 4 mps 756 mmHg 25%
    15:00 +33°C° 0 mm 4 mps 756 mmHg 24%
    16:00 +32°C° 0 mm 5 mps 756 mmHg 25%
    17:00 +29°C° 0 mm 5 mps 755 mmHg 25%
    18:00 +28°C° 0 mm 5 mps 755 mmHg 26%
    19:00 +27°C° 0 mm 5 mps 755 mmHg 31%
    20:00 +25°C° 0 mm 4 mps 756 mmHg 35%
    21:00 +22°C° 0 mm 4 mps 756 mmHg 40%
    22:00 +21°C° 0 mm 4 mps 756 mmHg 42%
    23:00 +21°C° 0 mm 3 mps 756 mmHg 44%

    Day after tomorrow, 28 August, Wednesday

    Time Temperature Precipitation Wind Pressure Humidity
    00:00 +20°C° 0 mm 3 mps 756 mmHg 47%
    01:00 +20°C° 0 mm 3 mps 756 mmHg 51%
    02:00 +19°C° 0 mm 3 mps 756 mmHg 55%
    03:00 +19°C° 0 mm 3 mps 756 mmHg 59%
    04:00 +18°C° 0 mm 3 mps 756 mmHg 63%
    05:00 +18°C° 0 mm 3 mps 756 mmHg 68%
    06:00 +18°C° 0 mm 3 mps 756 mmHg 72%
    07:00 +20°C° 0 mm 3 mps 756 mmHg 66%
    08:00 +22°C° 0 mm 4 mps 757 mmHg 59%
    09:00 +25°C° 0 mm 4 mps 757 mmHg 53%
    10:00 +26°C° 0 mm 4 mps 757 mmHg 47%
    11:00 +27°C° 0 mm 4 mps 756 mmHg 42%
    12:00 +28°C° 0 mm 5 mps 756 mmHg 36%
    13:00 +28°C° 0 mm 5 mps 756 mmHg 34%
    14:00 +29°C° 0 mm 5 mps 756 mmHg 32%
    15:00 +29°C° 0 mm 5 mps 756 mmHg 29%
    16:00 +28°C° 0 mm 5 mps 756 mmHg 30%
    17:00 +27°C° 0 mm 6 mps 756 mmHg 31%
    18:00 +26°C° 0 mm 6 mps 756 mmHg 32%
    19:00 +23°C° 0 mm 6 mps 757 mmHg 37%
    20:00 +21°C° 0 mm 5 mps 757 mmHg 42%
    21:00 +20°C° 0 mm 5 mps 757 mmHg 46%
    22:00 +19°C° 0 mm 5 mps 758 mmHg 45%
    23:00 +17°C° 0 mm 5 mps 758 mmHg 43%

    29 August, Thursday

    Time Temperature Precipitation Wind Pressure Humidity
    00:00 +16°C° 0 mm 5 mps 758 mmHg 41%
    01:00 +15°C° 0 mm 5 mps 758 mmHg 44%
    02:00 +14°C° 0 mm 4 mps 759 mmHg 47%
    03:00 +13°C° 0 mm 4 mps 759 mmHg 50%
    04:00 +12°C° 0 mm 4 mps 759 mmHg 53%
    05:00 +12°C° 0 mm 4 mps 759 mmHg 55%
    06:00 +11°C° 0 mm 4 mps 760 mmHg 58%
    07:00 +12°C° 0 mm 5 mps 760 mmHg 53%
    08:00 +14°C° 0 mm 5 mps 760 mmHg 49%
    09:00 +15°C° 0 mm 6 mps 760 mmHg 44%
    10:00 +17°C° 0 mm 6 mps 760 mmHg 40%
    11:00 +19°C° 0 mm 6 mps 760 mmHg 35%
    12:00 +21°C° 0 mm 6 mps 760 mmHg 31%
    13:00 +21°C° 0 mm 6 mps 759 mmHg 28%
    14:00 +22°C° 0 mm 6 mps 759 mmHg 26%
    15:00 +23°C° 0 mm 6 mps 758 mmHg 24%
    16:00 +22°C° 0 mm 6 mps 758 mmHg 25%
    17:00 +22°C° 0 mm 6 mps 758 mmHg 26%
    18:00 +21°C° 0 mm 6 mps 758 mmHg 27%
    19:00 +20°C° 0 mm 5 mps 758 mmHg 30%
    20:00 +17°C° 0 mm 5 mps 758 mmHg 33%
    21:00 +17°C° 0 mm 4 mps 758 mmHg 36%
    22:00 +15°C° 0 mm 4 mps 758 mmHg 38%
    23:00 +14°C° 0 mm 4 mps 758 mmHg 40%

    30 August, Friday

    Time Temperature Precipitation Wind Pressure Humidity
    00:00 +14°C° 0 mm 4 mps 758 mmHg 41%
    01:00 +13°C° 0 mm 4 mps 758 mmHg 44%
    02:00 +13°C° 0 mm 4 mps 758 mmHg 47%
    03:00 +12°C° 0 mm 4 mps 758 mmHg 49%
    04:00 +12°C° 0 mm 4 mps 758 mmHg 51%
    05:00 +12°C° 0 mm 4 mps 758 mmHg 53%
    06:00 +11°C° 0 mm 4 mps 758 mmHg 54%
    07:00 +13°C° 0 mm 4 mps 758 mmHg 49%
    08:00 +15°C° 0 mm 4 mps 758 mmHg 43%
    09:00 +17°C° 0 mm 5 mps 758 mmHg 38%
    10:00 +20°C° 0 mm 5 mps 758 mmHg 33%
    11:00 +21°C° 0 mm 5 mps 757 mmHg 28%
    12:00 +23°C° 0 mm 5 mps 757 mmHg 23%
    13:00 +23°C° 0 mm 5 mps 757 mmHg 22%
    14:00 +25°C° 0 mm 5 mps 757 mmHg 20%
    15:00 +25°C° 0 mm 5 mps 756 mmHg 18%
    16:00 +25°C° 0 mm 5 mps 756 mmHg 21%
    17:00 +25°C° 0 mm 5 mps 756 mmHg 23%
    18:00 +23°C° 0 mm 4 mps 756 mmHg 26%
    19:00 +21°C° 0 mm 4 mps 756 mmHg 32%
    20:00 +20°C° 0 mm 3 mps 756 mmHg 37%
    21:00 +18°C° 0 mm 2 mps 756 mmHg 43%
    22:00 +18°C° 0 mm 2 mps 756 mmHg 47%
    23:00 +18°C° 0 mm 2 mps 756 mmHg 51%

    31 August, Saturday

    Time Temperature Precipitation Wind Pressure Humidity
    00:00 +17°C° 0 mm 2 mps 756 mmHg 56%
    01:00 +17°C° 0 mm 3 mps 757 mmHg 62%
    02:00 +15°C° 0 mm 4 mps 757 mmHg 69%
    03:00 +15°C° 0 mm 4 mps 757 mmHg 75%
    04:00 +14°C° 0 mm 4 mps 757 mmHg 78%
    05:00 +13°C° 0 mm 4 mps 757 mmHg 80%
    06:00 +12°C° 0 mm 5 mps 757 mmHg 82%
    07:00 +13°C° 0 mm 5 mps 758 mmHg 73%
    08:00 +14°C° 0 mm 5 mps 758 mmHg 65%
    09:00 +16°C° 0 mm 5 mps 759 mmHg 56%
    10:00 +17°C° 0 mm 5 mps 758 mmHg 45%
    11:00 +20°C° 0 mm 5 mps 758 mmHg 34%
    12:00 +22°C° 0 mm 5 mps 758 mmHg 23%
    13:00 +23°C° 0 mm 5 mps 758 mmHg 21%
    14:00 +23°C° 0 mm 5 mps 758 mmHg 19%
    15:00 +25°C° 0 mm 4 mps 758 mmHg 17%
    16:00 +25°C° 0 mm 4 mps 758 mmHg 18%
    17:00 +23°C° 0 mm 4 mps 758 mmHg 19%
    18:00 +22°C° 0 mm 4 mps 758 mmHg 20%
    19:00 +20°C° 0 mm 4 mps 758 mmHg 24%
    20:00 +18°C° 0 mm 3 mps 758 mmHg 28%
    21:00 +16°C° 0 mm 3 mps 758 mmHg 31%
    22:00 +16°C° 0 mm 3 mps 758 mmHg 33%
    23:00 +15°C° 0 mm 2 mps 759 mmHg 34%
    Show more